EJU207 LPPT-LEMD

Flight info

Callsign EJU207
Flight time 0h 45m
Altitude 32000
Route ORVED DCT OGERO DCT ROLDO DCT RUKER Z409 TLD
Aircraft A320/M-SDE3FGHIRWY/LB1

Departure

Time 2026-05-03 20:15
Airport Lisbon Humberto Delgado Airport (LPPT)

Arrival

Time 2026-05-03 21:00
Airport Adolfo Suárez Madrid–Barajas Airport (LEMD)
Time Latitude Longitude Altitude Speed Heading
2026-05-03 20:15 38.82222 -9.10478 2852 ft 228 kts 23°
2026-05-03 20:15 38.83768 -9.09527 3460 ft 253 kts 24°
2026-05-03 20:15 38.85403 -9.08480 4223 ft 280 kts 25°
2026-05-03 20:15 38.87230 -9.07241 4521 ft 314 kts 26°
2026-05-03 20:16 38.89216 -9.05652 4386 ft 360 kts 39°
2026-05-03 20:16 38.90808 -9.03180 4213 ft 358 kts 55°
2026-05-03 20:16 38.91984 -9.00457 4028 ft 340 kts 63°
2026-05-03 20:16 38.92938 -8.97707 3193 ft 341 kts 65°
2026-05-03 20:17 38.93835 -8.94877 2373 ft 342 kts 66°
2026-05-03 20:17 38.94719 -8.92119 2758 ft 325 kts 65°
2026-05-03 20:17 38.95591 -8.89526 4295 ft 305 kts 64°
2026-05-03 20:17 38.96437 -8.87129 5931 ft 285 kts 64°
2026-05-03 20:18 38.97250 -8.84909 7475 ft 264 kts 64°
2026-05-03 20:18 38.98010 -8.82872 8994 ft 241 kts 64°
2026-05-03 20:18 38.98743 -8.80921 10090 ft 254 kts 64°
2026-05-03 20:18 38.99569 -8.78722 10365 ft 291 kts 64°
2026-05-03 20:19 39.00472 -8.76301 10665 ft 307 kts 64°
2026-05-03 20:19 39.01398 -8.73813 10957 ft 311 kts 64°
2026-05-03 20:19 39.02336 -8.71282 11266 ft 314 kts 64°
2026-05-03 20:19 39.03275 -8.68742 11560 ft 316 kts 64°
2026-05-03 20:20 39.04206 -8.66213 11846 ft 317 kts 64°
2026-05-03 20:20 39.05155 -8.63636 12179 ft 318 kts 64°
2026-05-03 20:20 39.06108 -8.61060 12772 ft 322 kts 64°
2026-05-03 20:20 39.07075 -8.58442 13378 ft 326 kts 64°
2026-05-03 20:21 39.07941 -8.56097 13911 ft 329 kts 64°
2026-05-03 20:21 39.08886 -8.53532 14311 ft 330 kts 64°
2026-05-03 20:21 39.09880 -8.50839 14826 ft 336 kts 64°
2026-05-03 20:21 39.10893 -8.48093 15360 ft 346 kts 64°
2026-05-03 20:22 39.11960 -8.45202 15516 ft 368 kts 64°
2026-05-03 20:22 39.13071 -8.42180 15959 ft 378 kts 64°
2026-05-03 20:22 39.14200 -8.39097 16571 ft 383 kts 65°
2026-05-03 20:22 39.15341 -8.35976 17194 ft 387 kts 65°
2026-05-03 20:23 39.16494 -8.32818 17816 ft 392 kts 65°
2026-05-03 20:23 39.17655 -8.29630 18411 ft 396 kts 65°
2026-05-03 20:23 39.18836 -8.26388 18950 ft 400 kts 65°
2026-05-03 20:23 39.20015 -8.23158 19473 ft 405 kts 65°
2026-05-03 20:24 39.21234 -8.19819 20008 ft 409 kts 64°
2026-05-03 20:24 39.22435 -8.16530 20524 ft 413 kts 64°
2026-05-03 20:24 39.23660 -8.13163 21068 ft 417 kts 64°
2026-05-03 20:24 39.24895 -8.09760 21596 ft 421 kts 64°
2026-05-03 20:25 39.26141 -8.06321 22128 ft 425 kts 64°
2026-05-03 20:25 39.27403 -8.02840 22656 ft 430 kts 64°
2026-05-03 20:25 39.28624 -7.99297 23175 ft 434 kts 67°
2026-05-03 20:25 39.29748 -7.95650 23705 ft 438 kts 69°
2026-05-03 20:26 39.30833 -7.91953 24144 ft 442 kts 68°
2026-05-03 20:26 39.31997 -7.88250 24582 ft 446 kts 67°
2026-05-03 20:26 39.33222 -7.84560 25018 ft 450 kts 66°
2026-05-03 20:26 39.34491 -7.80841 25436 ft 453 kts 66°
2026-05-03 20:27 39.35775 -7.77100 25851 ft 457 kts 66°
2026-05-03 20:27 39.37058 -7.73335 26257 ft 460 kts 66°
2026-05-03 20:27 39.38340 -7.69523 26653 ft 464 kts 66°
2026-05-03 20:27 39.39618 -7.65676 27048 ft 467 kts 67°
2026-05-03 20:28 39.40897 -7.61797 27439 ft 471 kts 67°
2026-05-03 20:28 39.42169 -7.57922 27789 ft 474 kts 67°
2026-05-03 20:28 39.43459 -7.53976 28132 ft 478 kts 67°
2026-05-03 20:28 39.44755 -7.50008 28385 ft 480 kts 67°
2026-05-03 20:29 39.46063 -7.46015 28760 ft 483 kts 67°
2026-05-03 20:29 39.47379 -7.42007 29114 ft 486 kts 67°
2026-05-03 20:29 39.48707 -7.37965 29450 ft 489 kts 67°
2026-05-03 20:29 39.50042 -7.33895 29780 ft 492 kts 67°
2026-05-03 20:30 39.51375 -7.29808 30104 ft 495 kts 68°
2026-05-03 20:30 39.52716 -7.25675 30374 ft 498 kts 68°
2026-05-03 20:30 39.54063 -7.21520 30645 ft 501 kts 68°
2026-05-03 20:30 39.55416 -7.17349 30924 ft 503 kts 68°
2026-05-03 20:31 39.56779 -7.13144 31187 ft 506 kts 68°
2026-05-03 20:31 39.58142 -7.08935 31460 ft 508 kts 68°
2026-05-03 20:31 39.59512 -7.04709 31701 ft 510 kts 68°
2026-05-03 20:31 39.60888 -7.00459 31927 ft 512 kts 68°
2026-05-03 20:32 39.62267 -6.96188 31995 ft 513 kts 68°
2026-05-03 20:32 39.65016 -6.87649 31999 ft 513 kts 68°
2026-05-03 20:33 39.67754 -6.79114 31999 ft 513 kts 68°
2026-05-03 20:33 39.70487 -6.70558 31995 ft 512 kts 68°
2026-05-03 20:34 39.73164 -6.62160 31993 ft 502 kts 68°
2026-05-03 20:34 39.75829 -6.53788 31991 ft 501 kts 68°
2026-05-03 20:35 39.78485 -6.45416 31986 ft 501 kts 69°
2026-05-03 20:35 39.80473 -6.36807 31990 ft 496 kts 86°
2026-05-03 20:36 39.81266 -6.27883 31988 ft 496 kts 86°
2026-05-03 20:36 39.82058 -6.18971 31984 ft 496 kts 86°
2026-05-03 20:37 39.82849 -6.10055 31985 ft 496 kts 86°
2026-05-03 20:37 39.83628 -6.01128 31986 ft 496 kts 86°
2026-05-03 20:38 39.84342 -5.92879 31986 ft 496 kts 87°
2026-05-03 20:38 39.85111 -5.83983 31974 ft 496 kts 87°
2026-05-03 20:39 39.85769 -5.76245 31977 ft 495 kts 87°
2026-05-03 20:39 39.86484 -5.67676 31974 ft 495 kts 87°
2026-05-03 20:40 39.87176 -5.59355 31966 ft 495 kts 87°
2026-05-03 20:40 39.87941 -5.50439 31971 ft 495 kts 86°
2026-05-03 20:41 39.88737 -5.42180 31979 ft 496 kts 86°
2026-05-03 20:41 39.89618 -5.33268 31979 ft 495 kts 86°
2026-05-03 20:41 39.90044 -5.28856 31977 ft 483 kts 86°
2026-05-03 20:42 39.90449 -5.24590 31943 ft 467 kts 86°
2026-05-03 20:42 39.90836 -5.20447 31797 ft 456 kts 86°
2026-05-03 20:42 39.91211 -5.16374 31490 ft 449 kts 86°
2026-05-03 20:42 39.91580 -5.12354 31111 ft 445 kts 87°
2026-05-03 20:43 39.91940 -5.08413 30731 ft 442 kts 87°
2026-05-03 20:43 39.92301 -5.04448 30348 ft 439 kts 87°
2026-05-03 20:43 39.92661 -5.00516 29954 ft 435 kts 87°
2026-05-03 20:43 39.93016 -4.96624 29523 ft 432 kts 87°
2026-05-03 20:44 39.93369 -4.92739 29097 ft 428 kts 87°
2026-05-03 20:44 39.93717 -4.88906 28713 ft 424 kts 87°
2026-05-03 20:44 39.94060 -4.85137 28568 ft 412 kts 87°
2026-05-03 20:44 39.94393 -4.81460 28255 ft 406 kts 87°
2026-05-03 20:45 39.94722 -4.77824 27872 ft 402 kts 87°
2026-05-03 20:45 39.95046 -4.74213 27475 ft 398 kts 87°
2026-05-03 20:45 39.95361 -4.70685 27083 ft 395 kts 88°
2026-05-03 20:45 39.95674 -4.67141 26691 ft 392 kts 88°
2026-05-03 20:46 39.95978 -4.63628 26309 ft 389 kts 88°
2026-05-03 20:46 39.96282 -4.60134 25936 ft 386 kts 88°
2026-05-03 20:46 39.96586 -4.56675 25566 ft 383 kts 88°
2026-05-03 20:46 39.96888 -4.53238 25210 ft 380 kts 88°
2026-05-03 20:47 39.97183 -4.49834 24843 ft 377 kts 88°
2026-05-03 20:47 39.97478 -4.46446 24474 ft 374 kts 88°
2026-05-03 20:47 39.97771 -4.43084 24118 ft 371 kts 88°
2026-05-03 20:47 39.98060 -4.39755 23763 ft 369 kts 88°
2026-05-03 20:48 39.98347 -4.36438 23384 ft 366 kts 88°
2026-05-03 20:48 39.98628 -4.33154 22984 ft 363 kts 88°
2026-05-03 20:48 39.98905 -4.29903 22591 ft 361 kts 88°
2026-05-03 20:48 39.99179 -4.26657 22221 ft 358 kts 88°
2026-05-03 20:49 39.99450 -4.23444 21855 ft 355 kts 88°
2026-05-03 20:49 39.99718 -4.20251 21496 ft 353 kts 87°
2026-05-03 20:49 39.99981 -4.17119 21153 ft 350 kts 87°
2026-05-03 20:49 40.00247 -4.13970 20801 ft 348 kts 87°
2026-05-03 20:50 40.00511 -4.10844 20459 ft 345 kts 87°
2026-05-03 20:50 40.00772 -4.07738 20132 ft 343 kts 87°
2026-05-03 20:50 40.01028 -4.04655 19735 ft 343 kts 87°
2026-05-03 20:50 40.01287 -4.01480 18876 ft 359 kts 87°
2026-05-03 20:51 40.01555 -3.98162 17967 ft 375 kts 86°
2026-05-03 20:51 40.01836 -3.94707 16920 ft 391 kts 86°
2026-05-03 20:51 40.02127 -3.91120 15849 ft 405 kts 86°
2026-05-03 20:51 40.02429 -3.87436 15262 ft 406 kts 86°
2026-05-03 20:52 40.02728 -3.83828 15140 ft 392 kts 86°
2026-05-03 20:52 40.03016 -3.80341 15009 ft 380 kts 86°
2026-05-03 20:52 40.03289 -3.77002 14736 ft 372 kts 86°
2026-05-03 20:52 40.03563 -3.73600 13957 ft 381 kts 86°
2026-05-03 20:53 40.03839 -3.70123 13120 ft 388 kts 86°
2026-05-03 20:53 40.04188 -3.66610 12288 ft 394 kts 79°
2026-05-03 20:53 40.05077 -3.63194 11477 ft 400 kts 65°
2026-05-03 20:53 40.06556 -3.60114 10684 ft 403 kts 51°
2026-05-03 20:54 40.08477 -3.57430 9918 ft 404 kts 46°
2026-05-03 20:54 40.12399 -3.52184 8260 ft 403 kts 45°
2026-05-03 20:54 40.14377 -3.49602 7463 ft 401 kts 44°
2026-05-03 20:55 40.16366 -3.47073 6925 ft 392 kts 42°
2026-05-03 20:55 40.18464 -3.45082 6796 ft 369 kts 26°
2026-05-03 20:55 40.20784 -3.43920 6682 ft 347 kts 14°
2026-05-03 20:55 40.23016 -3.42892 6554 ft 332 kts 19°
2026-05-03 20:56 40.25094 -3.41735 6439 ft 317 kts 21°
2026-05-03 20:56 40.27055 -3.40554 6299 ft 303 kts 22°
2026-05-03 20:56 40.28997 -3.39600 5919 ft 295 kts
2026-05-03 20:56 40.30986 -3.39356 5654 ft 281 kts 353°
2026-05-03 20:57 40.32865 -3.39763 5370 ft 269 kts 338°
2026-05-03 20:57 40.34537 -3.40727 5047 ft 259 kts 324°
2026-05-03 20:57 40.35974 -3.42095 4717 ft 252 kts 318°
2026-05-03 20:57 40.37351 -3.43488 4372 ft 248 kts 318°
2026-05-03 20:58 40.38713 -3.44865 4051 ft 245 kts 318°
2026-05-03 20:58 40.40053 -3.46220 3733 ft 242 kts 319°
2026-05-03 20:58 40.41377 -3.47559 3413 ft 238 kts 319°
2026-05-03 20:58 40.42670 -3.48868 3092 ft 232 kts 320°
2026-05-03 20:59 40.43934 -3.50149 2771 ft 227 kts 321°
2026-05-03 20:59 40.45166 -3.51396 2466 ft 218 kts 321°
2026-05-03 20:59 40.46327 -3.52572 2200 ft 205 kts 321°
2026-05-03 20:59 40.47442 -3.53703 1938 ft 198 kts 321°
2026-05-03 21:00 40.48433 -3.54719 1925 ft 154 kts 322°
2026-05-03 21:00 40.48689 -3.54970 1933 ft 127 kts 324°
2026-05-03 21:00 40.49220 -3.55566 1946 ft 4 kts 296°
2026-05-03 21:00 40.49221 -3.55572 1946 ft 0 kts 292°
2026-05-03 21:01 40.49232 -3.55668 1947 ft 18 kts 278°
2026-05-03 21:01 40.49291 -3.55838 1950 ft 3 kts 295°
2026-05-03 21:01 40.49296 -3.55854 1950 ft 0 kts 295°
2026-05-03 21:02 40.49297 -3.55855 1950 ft 2 kts 295°
2026-05-03 21:02 40.49319 -3.55946 1952 ft 17 kts 267°
2026-05-03 21:02 40.49313 -3.56065 1954 ft 0 kts 266°
2026-05-03 21:03 40.49313 -3.56066 1954 ft 1 kts 266°
2026-05-03 21:03 40.49306 -3.56153 1955 ft 14 kts 264°
2026-05-03 21:03 40.49304 -3.56178 1956 ft 0 kts 263°
2026-05-03 21:04 40.49301 -3.56202 1956 ft 6 kts 255°
2026-05-03 21:04 40.49224 -3.56249 1959 ft 20 kts 185°
2026-05-03 21:04 40.49095 -3.56247 1960 ft 19 kts 181°